SR6WVX Weather Reports


Display with metric or nautical units.
time (UTC)temp
F
wind
direction
speed
MPH
gust
MPH
rain 1hr
in
rain 24hr
in
rain mn
in
humidity
%
barometer
mb
20180922045208 54 247 0.0 2.0 0.00 0.16 0.00 77 1015.6
20180922044707 54 225 0.0 0.0 0.00 0.16 0.00 78 1015.9
20180922044207 54 270 0.0 1.0 0.00 0.16 0.00 79 1015.8
20180922043707 54 225 1.0 1.0 0.00 0.16 0.00 80 1015.9
20180922043207 54 225 0.0 0.0 0.00 0.16 0.00 80 1015.7
20180922042706 54 202 0.0 0.0 0.00 0.16 0.00 80 1015.7
20180922042206 54 225 0.0 0.0 0.00 0.16 0.00 81 1015.5
20180922041706 54 225 0.0 0.0 0.00 0.16 0.00 81 1015.7
20180922041205 54 225 0.0 0.0 0.00 0.16 0.00 82 1015.5
20180922040705 54 225 0.0 1.0 0.00 0.16 0.00 82 1015.4
20180922040205 54 202 1.0 3.0 0.00 0.16 0.00 82 1015.3
20180922035705 54 225 0.0 0.0 0.00 0.16 0.00 83 1015.3
20180922035205 53 225 0.0 0.0 0.00 0.16 0.00 83 1015.1
20180922034704 53 225 0.0 0.0 0.00 0.16 0.00 83 1015.0
20180922034204 53 247 0.0 0.0 0.00 0.16 0.00 84 1015.2
20180922033704 53 202 0.0 0.0 0.00 0.16 0.00 84 1015.1
20180922033203 54 225 0.0 0.0 0.00 0.16 0.00 84 1015.1
20180922032703 54 157 0.0 0.0 0.00 0.16 0.00 84 1015.0
20180922032203 53 225 0.0 0.0 0.00 0.16 0.00 84 1015.0
20180922031703 53 247 0.0 0.0 0.00 0.16 0.00 84 1014.8
20180922031202 53 225 0.0 0.0 0.00 0.16 0.00 84 1014.9
20180922030702 53 202 0.0 0.0 0.00 0.16 0.00 84 1014.8
20180922030202 53 202 0.0 0.0 0.00 0.16 0.00 84 1014.7
20180922025702 53 180 0.0 0.0 0.00 0.16 0.00 84 1014.6
20180922025202 53 225 0.0 0.0 0.00 0.16 0.00 84 1014.6
20180922024701 53 315 0.0 0.0 0.00 0.16 0.00 84 1014.6
20180922024201 53 225 0.0 0.0 0.00 0.16 0.00 84 1014.8
20180922023700 53 135 0.0 0.0 0.00 0.16 0.00 84 1014.7
20180922023200 53 135 0.0 0.0 0.00 0.16 0.00 84 1014.7
20180922022700 54 292 0.0 0.0 0.00 0.16 0.00 84 1014.7
20180922022200 54 180 0.0 0.0 0.00 0.16 0.00 84 1014.7
20180922021659 54 247 0.0 0.0 0.00 0.16 0.00 85 1014.4
20180922021159 54 315 0.0 0.0 0.00 0.16 0.00 85 1014.3
20180922020659 54 180 0.0 4.0 0.00 0.16 0.00 85 1014.4
20180922020159 54 315 0.0 0.0 0.00 0.16 0.00 86 1014.2
20180922015658 54 225 0.0 0.0 0.00 0.16 0.00 86 1014.3
20180922015158 54 270 0.0 0.0 0.00 0.16 0.00 86 1014.3
20180922014658 54 157 0.0 0.0 0.00 0.16 0.00 86 1014.1
20180922014158 54 180 0.0 0.0 0.00 0.16 0.00 86 1013.8
20180922013657 54 135 0.0 0.0 0.00 0.16 0.00 86 1013.8
20180922013157 54 202 0.0 0.0 0.00 0.16 0.00 86 1013.5
20180922012657 54 0 0.0 0.0 0.00 0.16 0.00 86 1013.3
20180922012156 54 270 0.0 0.0 0.00 0.16 0.00 86 1013.4
20180922011656 54 315 0.0 0.0 0.00 0.16 0.00 86 1013.4
20180922011156 55 292 0.0 0.0 0.00 0.16 0.00 86 1013.2
20180922010656 55 292 0.0 0.0 0.00 0.16 0.00 86 1013.4
20180922010155 55 247 0.0 0.0 0.00 0.16 0.00 86 1013.2
20180922005655 55 247 0.0 0.0 0.00 0.16 0.00 87 1013.1
20180922005155 55 225 0.0 0.0 0.00 0.16 0.00 87 1013.1
20180922004655 55 292 0.0 0.0 0.00 0.16 0.00 87 1013.0
20180922004154 55 247 0.0 0.0 0.00 0.16 0.00 87 1013.0
20180922003654 55 247 0.0 0.0 0.00 0.16 0.00 87 1013.0
20180922003154 55 0 0.0 0.0 0.00 0.16 0.00 87 1013.1
20180922002654 55 292 0.0 0.0 0.00 0.16 0.00 87 1013.1
20180922002153 55 247 0.0 0.0 0.00 0.16 0.00 87 1013.0
20180922001653 55 292 0.0 0.0 0.00 0.16 0.00 87 1012.8
20180922001153 55 112 0.0 0.0 0.00 0.16 0.00 88 1012.7
20180922000653 55 67 0.0 0.0 0.00 0.16 0.00 88 1012.7
20180922000152 55 315 0.0 0.0 0.02 0.16 0.00 88 1012.7
20180921235652 55 315 0.0 0.0 0.02 0.16 0.00 88 1012.6
20180921235152 55 315 0.0 3.0 0.02 0.16 0.00 88 1012.4
20180921234651 55 225 0.0 0.0 0.02 0.16 0.00 88 1012.4
20180921234151 55 270 0.0 0.0 0.02 0.16 0.00 88 1012.3
20180921233651 55 337 0.0 0.0 0.02 0.16 0.00 88 1012.3
20180921233151 55 0 0.0 0.0 0.02 0.16 0.00 88 1012.3
20180921232650 55 270 0.0 0.0 0.02 0.16 0.00 88 1012.1
20180921232150 55 337 0.0 0.0 0.02 0.16 0.00 89 1012.2
20180921231650 55 202 0.0 0.0 0.02 0.16 0.00 88 1012.1
20180921231150 55 225 0.0 4.0 0.02 0.16 0.00 88 1012.0
20180921230650 55 202 2.0 2.0 0.00 0.14 0.00 88 1012.2
20180921230149 55 247 0.0 0.0 0.00 0.14 0.00 88 1012.1
20180921225649 55 247 0.0 0.0 0.00 0.14 0.00 88 1012.0
20180921225149 55 247 0.0 0.0 0.00 0.14 0.00 88 1012.0
20180921224648 55 292 0.0 0.0 0.00 0.14 0.00 88 1011.9
20180921224148 55 270 0.0 0.0 0.00 0.14 0.00 88 1012.0
20180921223648 55 247 0.0 0.0 0.00 0.14 0.00 88 1011.7
20180921223148 55 337 0.0 0.0 0.00 0.14 0.00 88 1011.6
20180921222647 55 315 0.0 0.0 0.00 0.14 0.00 88 1011.6
20180921222147 55 270 0.0 0.0 0.00 0.14 0.00 88 1011.4
20180921221647 55 337 0.0 0.0 0.00 0.14 0.00 88 1011.1
20180921221147 55 315 0.0 0.0 0.00 0.14 0.00 87 1011.2
20180921220646 55 292 0.0 0.0 0.00 0.14 0.00 87 1010.8
20180921220146 55 292 0.0 0.0 0.02 0.14 0.00 87 1010.8
20180921215646 54 292 0.0 0.0 0.02 0.14 0.00 86 1011.0
20180921215145 54 292 0.0 0.0 0.02 0.14 0.00 86 1011.1
20180921214645 54 292 0.0 0.0 0.02 0.14 0.00 86 1011.0
20180921214145 55 292 0.0 0.0 0.02 0.14 0.00 86 1010.8
20180921213645 55 292 0.0 2.0 0.02 0.14 0.00 86 1010.9
20180921213144 54 315 2.0 4.0 0.04 0.14 0.00 86 1010.6
20180921212644 54 315 4.0 4.0 0.04 0.14 0.00 86 1010.6
20180921212144 54 315 0.0 4.0 0.04 0.14 0.00 86 1010.8
20180921211644 55 315 4.0 6.0 0.04 0.14 0.00 86 1010.8
20180921211143 55 315 6.0 8.0 0.06 0.14 0.00 86 1010.8
20180921210643 55 315 4.0 14.0 0.04 0.12 0.00 85 1010.8
20180921210143 55 315 8.0 10.0 0.06 0.12 0.00 85 1010.7
20180921205642 55 292 9.0 9.0 0.12 0.12 0.00 85 1010.7
20180921205142 56 270 0.0 2.0 0.12 0.12 0.00 84 1010.9
20180921204642 56 315 2.0 9.0 0.12 0.12 0.00 84 1010.7
20180921204142 57 270 4.0 11.0 0.12 0.12 0.00 84 1010.5
20180921203641 58 315 11.0 11.0 0.12 0.12 0.00 85 1010.1
20180921203141 59 315 7.0 14.0 0.10 0.10 0.00 85 1009.5
20180921202641 60 315 14.0 14.0 0.10 0.10 0.00 84 1009.4
20180921202141 61 337 8.0 9.0 0.10 0.10 0.00 84 1009.3
20180921201640 62 292 9.0 11.0 0.10 0.10 0.00 84 1009.1
20180921201140 63 270 6.0 6.0 0.08 0.08 0.00 82 1009.1
20180921200640 64 337 4.0 5.0 0.06 0.06 0.00 80 1008.8
20180921200140 64 315 5.0 8.0 0.06 0.06 0.00 79 1008.5
20180921195639 66 337 0.0 8.0 0.00 0.00 0.00 74 1008.7
20180921195139 68 315 8.0 11.0 0.00 0.00 0.00 68 1008.1
20180921194639 69 292 11.0 11.0 0.00 0.00 0.00 66 1007.5
20180921194138 71 337 8.0 11.0 0.00 0.00 0.00 62 1007.4
20180921193638 71 292 11.0 12.0 0.00 0.00 0.00 61 1007.0
20180921193138 72 292 9.0 10.0 0.00 0.00 0.00 58 1006.6
20180921192638 73 315 10.0 11.0 0.00 0.00 0.00 53 1006.4
20180921192137 74 337 4.0 19.0 0.00 0.00 0.00 51 1006.5
20180921191638 75 315 4.0 16.0 0.00 0.00 0.00 50 1006.1
20180921191137 75 315 16.0 16.0 0.00 0.00 0.00 51 1005.8
20180921190637 75 292 10.0 10.0 0.00 0.00 0.00 55 1005.4
20180921190136 75 225 0.0 0.0 0.00 0.00 0.00 54 1004.4
20180921185636 75 180 0.0 0.0 0.00 0.00 0.00 54 1004.2
20180921185136 75 157 0.0 0.0 0.00 0.00 0.00 54 1004.2
20180921184636 75 202 0.0 0.0 0.00 0.00 0.00 54 1004.1
20180921184135 75 180 0.0 0.0 0.00 0.00 0.00 54 1004.0
20180921183635 75 157 0.0 0.0 0.00 0.00 0.00 54 1003.9
20180921183135 75 202 0.0 0.0 0.00 0.00 0.00 54 1003.8
20180921182635 75 202 0.0 2.0 0.00 0.00 0.00 54 1003.8
20180921182134 75 135 2.0 2.0 0.00 0.00 0.00 54 1003.6
20180921181634 75 225 0.0 0.0 0.00 0.00 0.00 54 1003.5
20180921181134 75 180 0.0 0.0 0.00 0.00 0.00 53 1003.6
20180921180633 75 180 0.0 0.0 0.00 0.00 0.00 53 1003.6
20180921180133 75 180 0.0 0.0 0.00 0.00 0.00 53 1003.6
20180921175633 75 157 0.0 0.0 0.00 0.00 0.00 52 1003.6
20180921175133 75 247 0.0 0.0 0.00 0.00 0.00 51 1003.6
20180921174632 76 135 0.0 0.0 0.00 0.00 0.00 51 1003.7
20180921174132 76 202 0.0 0.0 0.00 0.00 0.00 50 1003.8
20180921173632 76 135 0.0 0.0 0.00 0.00 0.00 50 1003.6
20180921173132 76 180 0.0 0.0 0.00 0.00 0.00 49 1003.6
20180921172631 76 180 0.0 0.0 0.00 0.00 0.00 48 1003.6
20180921172131 77 202 0.0 0.0 0.00 0.00 0.00 47 1003.9
20180921171631 77 157 0.0 0.0 0.00 0.00 0.00 47 1003.8
20180921171131 77 157 0.0 0.0 0.00 0.00 0.00 46 1003.8
20180921170630 77 157 0.0 0.0 0.00 0.00 0.00 46 1003.7
20180921170130 78 157 0.0 0.0 0.00 0.00 0.00 46 1003.8
20180921165630 78 157 0.0 0.0 0.00 0.00 0.00 45 1003.8
20180921165130 78 157 0.0 0.0 0.00 0.00 0.00 45 1004.1
20180921164629 78 157 0.0 0.0 0.00 0.00 0.00 44 1004.2
20180921164129 78 157 0.0 0.0 0.00 0.00 0.00 44 1004.1
20180921163629 79 225 0.0 0.0 0.00 0.00 0.00 44 1004.1
20180921163128 79 135 0.0 1.0 0.00 0.00 0.00 43 1004.2
20180921162629 80 157 1.0 1.0 0.00 0.00 0.00 43 1004.2
20180921162131 80 202 0.0 0.0 0.00 0.00 0.00 42 1004.3
20180921161628 81 202 0.0 0.0 0.00 0.00 0.00 42 1004.2
20180921161127 82 157 0.0 0.0 0.00 0.00 0.00 40 1004.2
20180921160627 82 157 0.0 0.0 0.00 0.00 0.00 40 1004.3
20180921160127 83 202 0.0 0.0 0.00 0.00 0.00 39 1004.4
20180921155627 84 202 0.0 3.0 0.00 0.00 0.00 38 1004.5
20180921155126 85 157 0.0 0.0 0.00 0.00 0.00 37 1004.5
20180921154626 86 112 0.0 4.0 0.00 0.00 0.00 37 1004.5
20180921154126 86 112 4.0 4.0 0.00 0.00 0.00 36 1004.6
20180921153626 87 135 0.0 2.0 0.00 0.00 0.00 36 1004.6
20180921153125 88 225 0.0 0.0 0.00 0.00 0.00 35 1004.7
20180921152625 88 112 0.0 0.0 0.00 0.00 0.00 35 1004.9
20180921152125 88 67 0.0 0.0 0.00 0.00 0.00 34 1004.6
20180921151624 89 112 0.0 8.0 0.00 0.00 0.00 34 1004.8
20180921151124 90 180 8.0 8.0 0.00 0.00 0.00 33 1004.8
20180921150624 90 202 6.0 6.0 0.00 0.00 0.00 34 1004.8
20180921150124 89 202 0.0 0.0 0.00 0.00 0.00 34 1004.9
20180921145623 89 112 0.0 0.0 0.00 0.00 0.00 34 1005.0
20180921145123 88 202 0.0 0.0 0.00 0.00 0.00 35 1005.1
20180921144623 86 180 0.0 0.0 0.00 0.00 0.00 36 1005.2
20180921144123 85 202 0.0 10.0 0.00 0.00 0.00 36 1005.4
20180921143622 85 225 10.0 10.0 0.00 0.00 0.00 35 1005.3
20180921143122 86 202 0.0 0.0 0.00 0.00 0.00 34 1005.3
20180921142622 87 202 0.0 3.0 0.00 0.00 0.00 33 1005.4
20180921142122 88 225 3.0 3.0 0.00 0.00 0.00 33 1005.6
20180921141621 90 112 0.0 0.0 0.00 0.00 0.00 32 1005.7
20180921141121 91 112 0.0 8.0 0.00 0.00 0.00 32 1005.9
20180921140621 90 202 8.0 8.0 0.00 0.00 0.00 33 1005.7
20180921140121 89 225 0.0 0.0 0.00 0.00 0.00 33 1005.7
20180921135620 88 157 0.0 4.0 0.00 0.00 0.00 33 1005.8
20180921135120 88 225 2.0 5.0 0.00 0.00 0.00 34 1005.6
20180921134620 90 247 4.0 4.0 0.00 0.00 0.00 32 1005.7
20180921134119 91 135 0.0 3.0 0.00 0.00 0.00 33 1005.8
20180921133619 88 135 3.0 3.0 0.00 0.00 0.00 34 1006.0
20180921133119 87 202 0.0 0.0 0.00 0.00 0.00 36 1006.0
20180921132619 87 180 0.0 6.0 0.00 0.00 0.00 36 1006.0
20180921132118 87 202 6.0 6.0 0.00 0.00 0.00 35 1006.2
20180921131618 88 225 0.0 0.0 0.00 0.00 0.00 35 1006.3
20180921131118 89 225 0.0 0.0 0.00 0.00 0.00 34 1006.4
20180921130618 89 90 0.0 6.0 0.00 0.00 0.00 35 1006.3
20180921130117 90 157 0.0 4.0 0.00 0.00 0.00 34 1006.4
20180921125617 90 225 4.0 6.0 0.00 0.00 0.00 34 1006.5
20180921125117 89 180 0.0 0.0 0.00 0.00 0.00 35 1006.4
20180921124617 88 157 0.0 2.0 0.00 0.00 0.00 35 1006.5
20180921124116 87 112 0.0 0.0 0.00 0.00 0.00 35 1006.7
20180921123616 87 225 0.0 7.0 0.00 0.00 0.00 35 1006.8
20180921123116 88 202 6.0 6.0 0.00 0.00 0.00 34 1006.8
20180921122615 88 202 0.0 2.0 0.00 0.00 0.00 34 1007.0
20180921122115 88 225 1.0 6.0 0.00 0.00 0.00 34 1006.9
20180921121615 88 202 6.0 8.0 0.00 0.00 0.00 33 1007.0
20180921121115 89 225 8.0 15.0 0.00 0.00 0.00 33 1007.2
20180921120614 89 202 15.0 15.0 0.00 0.00 0.00 33 1007.3
20180921120114 88 225 0.0 0.0 0.00 0.00 0.00 32 1007.3
20180921115614 89 225 0.0 6.0 0.00 0.00 0.00 32 1007.4
20180921115114 89 112 0.0 6.0 0.00 0.00 0.00 32 1007.5
20180921114613 89 180 6.0 7.0 0.00 0.00 0.00 31 1007.5
20180921114113 89 202 7.0 7.0 0.00 0.00 0.00 32 1007.8
20180921113613 88 202 7.0 7.0 0.00 0.00 0.00 32 1008.1
20180921113113 88 180 0.0 8.0 0.00 0.00 0.00 32 1007.8
20180921112612 89 225 8.0 8.0 0.00 0.00 0.00 31 1007.8
20180921112112 89 202 4.0 4.0 0.00 0.00 0.00 29 1007.9
20180921111612 91 157 2.0 10.0 0.00 0.00 0.00 28 1008.1
20180921111112 91 135 0.0 5.0 0.00 0.00 0.00 30 1008.1
20180921110611 92 202 0.0 5.0 0.00 0.00 0.00 30 1008.1
20180921110111 93 247 0.0 5.0 0.00 0.00 0.00 28 1008.2
20180921105611 93 225 0.0 0.0 0.00 0.00 0.00 28 1008.4
20180921105110 92 180 0.0 0.0 0.00 0.00 0.00 30 1008.3
20180921104610 91 22 0.0 0.0 0.00 0.00 0.00 31 1008.6
20180921104110 90 180 0.0 7.0 0.00 0.00 0.00 30 1008.6
20180921103610 91 202 7.0 7.0 0.00 0.00 0.00 30 1008.8
20180921103109 92 157 7.0 7.0 0.00 0.00 0.00 30 1008.8
20180921102609 92 247 2.0 3.0 0.00 0.00 0.00 31 1008.8
20180921102109 92 225 3.0 3.0 0.00 0.00 0.00 31 1008.7
20180921101626 91 135 0.0 0.0 0.00 0.00 0.00 33 1008.8
20180921101108 90 45 0.0 9.0 0.00 0.00 0.00 32 1009.0
20180921100608 92 225 9.0 9.0 0.00 0.00 0.00 32 1009.1
20180921100108 93 90 0.0 2.0 0.00 0.00 0.00 32 1009.1
20180921095608 93 225 2.0 2.0 0.00 0.00 0.00 32 1009.1
20180921095107 92 202 0.0 1.0 0.00 0.00 0.00 34 1009.3
20180921094607 92 315 0.0 0.0 0.00 0.00 0.00 33 1009.1
20180921094107 93 112 0.0 0.0 0.00 0.00 0.00 34 1009.4
20180921093607 91 90 0.0 0.0 0.00 0.00 0.00 35 1009.2
20180921093107 90 157 0.0 0.0 0.00 0.00 0.00 36 1009.4
20180921092606 89 225 0.0 0.0 0.00 0.00 0.00 39 1009.5
20180921092109 89 135 0.0 2.0 0.00 0.00 0.00 37 1009.7
20180921091609 88 202 2.0 6.0 0.00 0.00 0.00 37 1009.8
20180921091105 87 225 6.0 7.0 0.00 0.00 0.00 39 1009.6
20180921090605 87 225 7.0 7.0 0.00 0.00 0.00 37 1009.8
20180921090105 89 112 1.0 8.0 0.00 0.00 0.00 36 1010.0
20180921085604 90 202 8.0 8.0 0.00 0.00 0.00 36 1010.3
20180921085105 90 90 0.0 0.0 0.00 0.00 0.00 39 1010.1
20180921084604 89 247 0.0 0.0 0.00 0.00 0.00 39 1010.1
20180921084104 89 225 0.0 0.0 0.00 0.00 0.00 39 1010.2
20180921083604 91 202 0.0 0.0 0.00 0.00 0.00 36 1010.3
20180921083103 92 135 0.0 0.0 0.00 0.00 0.00 38 1010.4
20180921082603 92 157 0.0 0.0 0.00 0.00 0.00 38 1010.4
20180921082102 91 202 0.0 0.0 0.00 0.00 0.00 40 1010.5
20180921081602 90 225 0.0 0.0 0.00 0.00 0.00 42 1010.5
20180921081102 90 135 0.0 0.0 0.00 0.00 0.00 42 1010.6
20180921080602 91 135 0.0 0.0 0.00 0.00 0.00 41 1010.7
20180921080101 90 157 0.0 0.0 0.00 0.00 0.00 42 1010.8
20180921075602 90 135 0.0 0.0 0.00 0.00 0.00 43 1010.7
20180921075101 89 135 0.0 0.0 0.00 0.00 0.00 44 1010.6
20180921074601 88 112 0.0 0.0 0.00 0.00 0.00 45 1010.7
20180921074100 88 157 0.0 0.0 0.00 0.00 0.00 46 1010.8
20180921073600 87 135 0.0 0.0 0.00 0.00 0.00 50 1010.8
20180921073100 84 112 0.0 0.0 0.00 0.00 0.00 52 1010.8
20180921072600 83 112 0.0 0.0 0.00 0.00 0.00 55 1010.8
20180921072059 79 90 0.0 0.0 0.00 0.00 0.00 56 1010.9
20180921071559 79 90 0.0 0.0 0.00 0.00 0.00 57 1011.0
20180921071059 78 90 0.0 0.0 0.00 0.00 0.00 56 1011.1
20180921070558 78 67 0.0 0.0 0.00 0.00 0.00 59 1011.1
20180921070058 76 90 0.0 0.0 0.00 0.00 0.00 60 1011.0
20180921065558 76 90 0.0 0.0 0.00 0.00 0.00 61 1010.9
20180921065058 75 90 0.0 0.0 0.00 0.00 0.00 61 1011.2
20180921064557 75 90 0.0 0.0 0.00 0.00 0.00 62 1011.1
20180921064057 75 90 0.0 0.0 0.00 0.00 0.00 63 1011.2
20180921063557 73 90 0.0 0.0 0.00 0.00 0.00 65 1011.2
20180921063057 73 67 0.0 0.0 0.00 0.00 0.00 69 1011.4
20180921062556 71 67 0.0 0.0 0.00 0.00 0.00 71 1011.3
20180921062056 70 67 0.0 0.0 0.00 0.00 0.00 72 1011.4
20180921061556 69 67 0.0 0.0 0.00 0.00 0.00 74 1011.3
20180921061056 69 67 0.0 0.0 0.00 0.00 0.00 75 1011.4
20180921060555 68 67 0.0 0.0 0.00 0.00 0.00 78 1011.5
20180921060055 67 67 0.0 0.0 0.00 0.00 0.00 80 1011.4
20180921055555 66 67 0.0 0.0 0.00 0.00 0.00 82 1011.5
20180921055055 66 67 0.0 0.0 0.00 0.00 0.00 85 1011.6
20180921054554 65 67 0.0 0.0 0.00 0.00 0.00 87 1011.6
20180921054054 63 67 0.0 0.0 0.00 0.00 0.00 88 1011.7
20180921053554 62 67 0.0 0.0 0.00 0.00 0.00 89 1011.7
20180921053054 61 67 0.0 0.0 0.00 0.00 0.00 89 1011.6
20180921052553 60 90 0.0 0.0 0.00 0.00 0.00 90 1011.7
20180921052053 58 90 0.0 0.0 0.00 0.00 0.00 91 1011.6
20180921051553 58 90 0.0 0.0 0.00 0.00 0.00 91 1011.6
20180921051052 56 90 0.0 0.0 0.00 0.00 0.00 91 1011.6
20180921050552 55 112 0.0 0.0 0.00 0.00 0.00 91 1011.6
20180921050052 55 112 0.0 0.0 0.00 0.00 0.00 91 1011.8
20180921045552 55 112 0.0 0.0 0.00 0.00 0.00 90 1011.8